Zurück zum Katalog

DELTA 1 DEB

AktivSSO
NORAD 9570·DEBRIS·🇺🇸 United States

Gestartet Nov 6, 1973 von Vandenberg Space Force Base

Loading…

Nächste Überflüge (nächste 24 Stunden)

TLE

AktuellSource: Space-Track

Epoche: Sep 14, 2026, 13:53 UTC

1 09570U 73086FX  26257.57858032 -.00000029  00000-0  10528-3 0  9996
2 09570 101.7481 195.6092 0067427 210.2014 326.3769 12.41297282388961

Verfolge DELTA 1 DEB in Echtzeit mit AllMySat

Download on the App Store